Torna al catalogo

FENGYUN 1C DEB

AttivoSSO
NORAD 30400·DEBRIS·🇨🇳 China

Lanciato May 10, 1999 da Taiyuan Satellite Launch Center

Loading…

Prossimi Passaggi (prossime 24 ore)

TLE

AggiornatoSource: Space-Track

Epoca: Sep 13, 2026, 19:07 UTC

1 30400U 99025ADP 26256.79673203  .00002700  00000-0  11843-2 0  9998
2 30400  99.1601 195.2264 0217314 284.5717 102.2098 14.12727084993959

Traccia FENGYUN 1C DEB in tempo reale con AllMySat

Download on the App Store